This demonstration page uses our WeatherBlox Daily Observations layout. Learn more.

Left ArrowRight Arrow

Hourly Observations for January 13, 2015

Temp ( °F °C ) Dew Point ( °F °C ) Humidity (%) Winds ( mph kmh ) Pressure ( in mb ) Visibility ( mi km ) Precip ( " mm )
12:52 am 00:52 Clear 0 -17.8 -5 -20.6 79 79 N 3 6 30.81 1043 10 16 0.00 0.00
1:52 am 01:52 Clear -1 -18.3 -6 -21.1 79 79 N 3 6 30.81 1043 10 16 0.00 0.00
2:52 am 02:52 Clear -2 -18.9 -6 -21.1 83 83 NNE 5 7 30.81 1044 10 16 0.00 0.00
3:52 am 03:52 Clear -2 -18.9 -6 -21.1 83 83 N 5 7 30.80 1043 10 16 0.00 0.00
4:52 am 04:52 Clear -4 -20 -7 -21.7 86 86 NNW 3 6 30.79 1043 10 16 0.00 0.00
5:52 am 05:52 Clear -4 -20 -7 -21.7 86 86 Calm 30.79 1043 10 16 0.00 0.00
6:52 am 06:52 Mostly Clear -3 -19.4 -7 -21.7 82 82 Calm 30.77 1042 10 16 0.00 0.00
7:52 am 07:52 Partly Cloudy with Patchy Fog -3 -19.4 -8 -22.2 79 79 SE 5 7 30.76 1042 10 16 0.00 0.00
8:52 am 08:52 Mostly Sunny 0 -17.8 -5 -20.6 79 79 SSE 5 7 30.75 1041 10 16 0.00 0.00
9:52 am 09:52 Partly Cloudy 5 -15 -1 -18.3 76 76 SSE 8 13 30.73 1041 10 16 0.00 0.00
10:52 am 10:52 Mostly Sunny 9 -12.8 2 -16.7 73 73 S 7 11 30.73 1041 10 16 0.00 0.00
11:52 am 11:52 Partly Cloudy 14 -10 4 -15.6 64 64 S 9 15 30.69 1039 10 16 0.00 0.00
12:52 pm 12:52 Partly Cloudy 16 -8.9 4 -15.6 59 59 S 7 11 30.64 1038 10 16 0.00 0.00
1:52 pm 13:52 Partly Cloudy 19 -7.2 4 -15.6 51 51 S 10 17 30.60 1036 10 16 0.00 0.00
2:52 pm 14:52 Partly Cloudy 22 -5.6 4 -15.6 46 46 S 10 17 30.57 1035 10 16 0.00 0.00
3:52 pm 15:52 Partly Cloudy 23 -5 4 -15.6 44 44 S 8 13 30.55 1035 10 16 0.00 0.00
4:52 pm 16:52 Mostly Cloudy 22 -5.6 5 -15 48 48 S 6 9 30.55 1035 10 16 0.00 0.00
5:52 pm 17:52 Cloudy 22 -5.6 5 -15 48 48 SSE 12 19 30.54 1034 10 16 0.00 0.00
6:52 pm 18:52 Cloudy 22 -5.6 5 -15 48 48 S 8 13 30.54 1034 10 16 0.00 0.00
7:52 pm 19:52 Cloudy 22 -5.6 7 -13.9 52 52 SSE 8 13 30.53 1034 10 16 0.00 0.00
8:52 pm 20:52 Cloudy 22 -5.6 7 -13.9 52 52 SSE 9 15 30.50 1033 10 16 0.00 0.00
9:52 pm 21:52 Cloudy 22 -5.6 7 -13.9 52 52 S 10 17 30.48 1032 10 16 0.00 0.00
10:52 pm 22:52 Cloudy 22 -5.6 7 -13.9 52 52 S 10 17 30.47 1032 10 16 0.00 0.00
11:52 pm 23:52 Mostly Cloudy 22 -5.6 8 -13.3 55 55 S 7 11 30.45 1031 10 16 0.00 0.00

Powered by AerisWeather